Regional Weather Roundup
Issued by NWS

Home | Current Version | Previous Version | Text Only | Print | Product List | Glossary Off
Versions: 1 2 3 4 5 6 7 8 9 10 11 12 13 14 15 16 17 18 19 20 21 22 23 24 25 26 27 28 29 30 31 32 33 34 35 36 37 38 39 40 41 42 43 44 45 46 47 48 49 50

000
ASUS43 KOAX 221410
RWRNE

WEATHER ROUNDUP FOR NEBRASKA
NATIONAL WEATHER SERVICE OMAHA NE
800 AM CST MON DEC 22 2014

NOTES: SATELLITE DATA IS BEING USED TO AUGMENT CLOUD COVER ABOVE
       12000 FEET.
       "FAIR" INDICATES FEW OR NO CLOUDS BELOW 12,000 FEET WITH NO
       SIGNIFICANT WEATHER AND/OR OBSTRUCTIONS TO VISIBILITY.

  * THESE STATIONS DO NOT REPORT WEATHER SUCH AS RAIN...SNOW OR FOG.

NEZ001>004-019>022-054>056-221500-
NEBRASKA PANHANDLE

CITY           SKY/WX    TMP DP  RH WIND       PRES   REMARKS
SCOTTSBLUFF    MOCLDY    33  27  78 W14       29.69S WCI  23
ALLIANCE       MOCLDY    30  24  78 W15       29.64R WCI  19
CHADRON        CLOUDY    35  25  66 W16       29.64F WCI  25
KIMBALL        PTCLDY    27  25  92 NW10      29.68F WCI  18
SIDNEY         MOCLDY    33  26  75 NW17      29.69R WCI  22
$$

NEZ057>060-069>072-079>082-221500-
SOUTHWEST NEBRASKA

CITY           SKY/WX    TMP DP  RH WIND       PRES   REMARKS
NORTH PLATTE   CLOUDY    34  31  88 W6        29.59S WCI  29
IMPERIAL       CLOUDY    37  30  75 NW18G30   29.65R WCI  27
LEXINGTON      PTCLDY    36  33  89 NW10      29.57R WCI  28
MCCOOK         CLOUDY    39  32  76 W14       29.62R WCI  31
OGALLALA       CLOUDY    37  31  79 W16       29.63R WCI  28
$$

NEZ005>010-023>029-035>040-094-221500-
NORTH CENTRAL NEBRASKA

CITY           SKY/WX    TMP DP  RH WIND       PRES   REMARKS
VALENTINE      CLOUDY    38  31  76 W13       29.52S WCI  30
AINSWORTH      CLOUDY    37  33  85 NW16      29.51S WCI  27
BROKEN BOW     CLOUDY    38  33  82 NW18      29.53S WCI  28
O`NEILL        CLOUDY    38  38  97 NW14G21   29.48S WCI  30
THEDFORD       MOCLDY    37  33  87 W16       29.55S WCI  27
$$

NEZ041-046>049-061>064-073>077-083>087-221500-
SOUTH CENTRAL NEBRASKA

CITY           SKY/WX    TMP DP  RH WIND       PRES   REMARKS
GRAND ISLAND   CLOUDY    38  35  89 NW13      29.53S WCI  30
AURORA         CLOUDY    39  37  93 NW8       29.51S WCI  34
HASTINGS       CLOUDY    37  34  89 NW10      29.53R WCI  30
HEBRON         CLOUDY    43  40  89 W7        29.52R FOG
HOLDREGE       MOCLDY    36  32  86 NW10      29.56R WCI  28
KEARNEY *      CLOUDY    37  34  87 W10       29.55S WCI  30
YORK           CLOUDY    39  37  93 NW15      29.51R WCI  31
$$

NEZ011>018-030>034-042>045-221500-
NORTHEAST NEBRASKA

CITY           SKY/WX    TMP DP  RH WIND       PRES   REMARKS
NORFOLK        MOCLDY    40  38  93 W8        29.47S WCI  34
ALBION         CLOUDY    39  37  92 NW6       29.49S FOG     WCI  35
BLAIR          LGT RAIN  42  40  93 SE14G20   29.51F
COLUMBUS *     CLOUDY    43  37  81 W7        29.50S
FREMONT        RAIN      43  42  97 SE8       29.51S
TEKAMAH        LGT RAIN  43  41  93 SE14      29.52S FOG
WAYNE          CLOUDY    42  41  97 S7        29.48S FOG
$$

NEZ050>053-065>068-078-088>093-221500-
SOUTHEAST NEBRASKA

CITY           SKY/WX    TMP DP  RH WIND       PRES   REMARKS
LINCOLN        LGT RAIN  43  42  97 S7        29.52F FOG
OMAHA EPPLEY   LGT RAIN  42  41  96 SE14      29.55S
BEATRICE       LGT RAIN  42  42  99 S8        29.51F
FALLS CITY     RAIN      42  40  92 SE9       29.55F FOG
NEBRASKA CITY  RAIN      41  41 100 S12       29.54F
PLATTSMOUTH    LGT RAIN  40  39  95 SE12      29.54S WCI  34
$$

NEZ044-045-051>053-067-221500-
OMAHA AREA

CITY           SKY/WX    TMP DP  RH WIND       PRES   REMARKS
OMAHA EPPLEY   LGT RAIN  42  41  96 SE14      29.55S
BLAIR          LGT RAIN  42  40  93 SE14G20   29.51F
FREMONT        RAIN      43  42  97 SE8       29.51S
MILLARD        LGT RAIN  42  40  94 SE10      29.53F
OFFUTT AFB     LGT RAIN  41  40  96 SE10      29.54S FOG
PLATTSMOUTH    LGT RAIN  40  39  95 SE12      29.54S WCI  34
WAHOO          LGT RAIN  42  40  93 SE8       29.51S
$$



USA.gov is the U.S. government's official web portal to all federal, state and local government web resources and services.